• In Spain
  • List of Countries
  • For 7 days
  • Water Temperature
  • Satellite Maps
  • Weather Map
  • Weather Widgets
  • user-avatar
    Login

    Hourly Weather Sydney

    Today, 15 December, Friday

    Time Temperature Precipitation Wind Pressure Humidity
    00:00 +26°C° 0.2 mm 3 mps 756 mmHg 67%
    01:00 +25°C° 0.2 mm 3 mps 756 mmHg 74%
    02:00 +25°C° 0 mm 3 mps 756 mmHg 77%
    03:00 +24°C° 0 mm 3 mps 757 mmHg 80%
    04:00 +23°C° 0 mm 5 mps 757 mmHg 80%
    05:00 +23°C° 0 mm 5 mps 757 mmHg 81%
    06:00 +23°C° 0 mm 5 mps 758 mmHg 81%
    07:00 +23°C° 0 mm 5 mps 758 mmHg 82%
    08:00 +25°C° 0 mm 5 mps 758 mmHg 79%
    09:00 +25°C° 0 mm 5 mps 758 mmHg 76%
    10:00 +26°C° 0 mm 5 mps 759 mmHg 67%
    11:00 +28°C° 0.2 mm 4 mps 758 mmHg 61%
    12:00 +29°C° 0.2 mm 4 mps 758 mmHg 54%
    13:00 +31°C° 0.2 mm 3 mps 758 mmHg 48%
    14:00 +31°C° 0 mm 3 mps 757 mmHg 48%
    15:00 +31°C° 0 mm 3 mps 757 mmHg 49%
    16:00 +29°C° 0 mm 1 mps 757 mmHg 59%
    17:00 +28°C° 0 mm 1 mps 758 mmHg 64%
    18:00 +27°C° 0 mm 1 mps 758 mmHg 68%
    19:00 +26°C° 0 mm 1 mps 758 mmHg 72%
    20:00 +25°C° 0 mm 2 mps 758 mmHg 75%
    21:00 +25°C° 0 mm 3 mps 758 mmHg 77%
    22:00 +25°C° 0 mm 4 mps 759 mmHg 79%
    23:00 +23°C° 0 mm 4 mps 758 mmHg 79%

    Tomorrow, 16 December, Saturday

    Time Temperature Precipitation Wind Pressure Humidity
    00:00 +23°C° 0 mm 4 mps 758 mmHg 80%
    01:00 +23°C° 0 mm 4 mps 758 mmHg 81%
    02:00 +24°C° 0 mm 3 mps 758 mmHg 82%
    03:00 +22°C° 0 mm 3 mps 758 mmHg 82%
    04:00 +22°C° 0 mm 3 mps 758 mmHg 83%
    05:00 +25°C° 0 mm 3 mps 759 mmHg 74%
    06:00 +27°C° 0 mm 3 mps 759 mmHg 64%
    07:00 +28°C° 0 mm 3 mps 759 mmHg 55%
    08:00 +31°C° 0 mm 3 mps 759 mmHg 46%
    09:00 +35°C° 0 mm 4 mps 759 mmHg 37%
    10:00 +38°C° 0 mm 4 mps 759 mmHg 28%
    11:00 +38°C° 0 mm 4 mps 759 mmHg 28%
    12:00 +39°C° 0 mm 5 mps 758 mmHg 28%
    13:00 +40°C° 0 mm 5 mps 758 mmHg 28%
    14:00 +37°C° 0.6 mm 5 mps 758 mmHg 37%
    15:00 +35°C° 0.6 mm 5 mps 758 mmHg 45%
    16:00 +33°C° 0.6 mm 5 mps 757 mmHg 54%
    17:00 +30°C° 2.6 mm 5 mps 758 mmHg 63%
    18:00 +28°C° 2.6 mm 4 mps 758 mmHg 72%
    19:00 +26°C° 2.6 mm 4 mps 758 mmHg 81%
    20:00 +25°C° 0.8 mm 4 mps 759 mmHg 83%
    21:00 +25°C° 0.8 mm 4 mps 760 mmHg 86%
    22:00 +24°C° 0.8 mm 3 mps 760 mmHg 89%
    23:00 +24°C° 0.2 mm 3 mps 760 mmHg 90%

    Day after tomorrow, 17 December, Sunday

    Time Temperature Precipitation Wind Pressure Humidity
    00:00 +24°C° 0.2 mm 3 mps 760 mmHg 92%
    01:00 +24°C° 0.2 mm 3 mps 760 mmHg 94%
    02:00 +24°C° 0.2 mm 3 mps 760 mmHg 93%
    03:00 +22°C° 0.2 mm 3 mps 760 mmHg 93%
    04:00 +22°C° 0.2 mm 3 mps 760 mmHg 93%
    05:00 +24°C° 0 mm 3 mps 760 mmHg 91%
    06:00 +24°C° 0 mm 3 mps 760 mmHg 90%
    07:00 +23°C° 0 mm 4 mps 761 mmHg 88%
    08:00 +25°C° 0 mm 4 mps 761 mmHg 82%
    09:00 +26°C° 0 mm 4 mps 761 mmHg 77%
    10:00 +27°C° 0 mm 4 mps 761 mmHg 72%
    11:00 +29°C° 0 mm 4 mps 761 mmHg 65%
    12:00 +32°C° 0 mm 4 mps 760 mmHg 58%
    13:00 +33°C° 0 mm 4 mps 760 mmHg 52%
    14:00 +33°C° 0 mm 4 mps 759 mmHg 54%
    15:00 +32°C° 0 mm 4 mps 759 mmHg 56%
    16:00 +32°C° 0 mm 4 mps 759 mmHg 59%
    17:00 +29°C° 0.2 mm 3 mps 759 mmHg 68%
    18:00 +27°C° 0.2 mm 3 mps 760 mmHg 77%
    19:00 +25°C° 0.2 mm 2 mps 760 mmHg 86%
    20:00 +25°C° 0.1 mm 2 mps 760 mmHg 88%
    21:00 +24°C° 0.1 mm 2 mps 761 mmHg 90%
    22:00 +24°C° 0.1 mm 2 mps 761 mmHg 92%
    23:00 +24°C° 0 mm 2 mps 761 mmHg 93%

    18 December, Monday

    Time Temperature Precipitation Wind Pressure Humidity
    00:00 +24°C° 0 mm 2 mps 760 mmHg 93%
    01:00 +23°C° 0 mm 2 mps 760 mmHg 93%
    02:00 +23°C° 0 mm 2 mps 759 mmHg 94%
    03:00 +23°C° 0 mm 2 mps 759 mmHg 94%
    04:00 +23°C° 0 mm 2 mps 759 mmHg 95%
    05:00 +24°C° 0 mm 2 mps 759 mmHg 89%
    06:00 +25°C° 0 mm 2 mps 759 mmHg 84%
    07:00 +26°C° 0 mm 1 mps 759 mmHg 78%
    08:00 +29°C° 0 mm 2 mps 759 mmHg 68%
    09:00 +32°C° 0 mm 2 mps 759 mmHg 57%
    10:00 +35°C° 0 mm 2 mps 759 mmHg 46%
    11:00 +36°C° 0.2 mm 3 mps 758 mmHg 44%
    12:00 +37°C° 0.2 mm 4 mps 757 mmHg 42%
    13:00 +39°C° 0.2 mm 5 mps 757 mmHg 39%
    14:00 +36°C° 0.3 mm 5 mps 756 mmHg 45%
    15:00 +35°C° 0.3 mm 6 mps 756 mmHg 51%
    16:00 +33°C° 0.3 mm 6 mps 756 mmHg 57%
    17:00 +30°C° 0.5 mm 6 mps 756 mmHg 64%
    18:00 +29°C° 0.5 mm 5 mps 756 mmHg 71%
    19:00 +27°C° 0.5 mm 5 mps 757 mmHg 78%
    20:00 +26°C° 0.3 mm 4 mps 757 mmHg 80%
    21:00 +26°C° 0.3 mm 3 mps 757 mmHg 83%
    22:00 +25°C° 0.3 mm 2 mps 758 mmHg 85%
    23:00 +25°C° 0.2 mm 2 mps 757 mmHg 86%

    19 December, Tuesday

    Time Temperature Precipitation Wind Pressure Humidity
    00:00 +25°C° 0.2 mm 1 mps 757 mmHg 87%
    01:00 +25°C° 0.2 mm 1 mps 757 mmHg 87%
    02:00 +25°C° 0 mm 1 mps 756 mmHg 88%
    03:00 +24°C° 0 mm 2 mps 756 mmHg 88%
    04:00 +24°C° 0 mm 2 mps 755 mmHg 89%
    05:00 +25°C° 0.1 mm 2 mps 756 mmHg 85%
    06:00 +26°C° 0.1 mm 3 mps 756 mmHg 81%
    07:00 +27°C° 0.1 mm 3 mps 756 mmHg 78%
    08:00 +30°C° 0.1 mm 3 mps 756 mmHg 65%
    09:00 +34°C° 0.1 mm 4 mps 755 mmHg 52%
    10:00 +39°C° 0.1 mm 5 mps 755 mmHg 39%
    11:00 +41°C° 0 mm 5 mps 754 mmHg 33%
    12:00 +43°C° 0 mm 5 mps 754 mmHg 27%
    13:00 +46°C° 0 mm 6 mps 753 mmHg 21%
    14:00 +45°C° 0 mm 6 mps 753 mmHg 22%
    15:00 +44°C° 0 mm 7 mps 752 mmHg 24%
    16:00 +43°C° 0 mm 7 mps 752 mmHg 26%
    17:00 +40°C° 0 mm 7 mps 752 mmHg 30%
    18:00 +39°C° 0 mm 7 mps 752 mmHg 34%
    19:00 +36°C° 0 mm 7 mps 752 mmHg 38%
    20:00 +35°C° 0 mm 7 mps 752 mmHg 37%
    21:00 +35°C° 0 mm 6 mps 752 mmHg 36%
    22:00 +35°C° 0 mm 6 mps 752 mmHg 36%
    23:00 +34°C° 0 mm 5 mps 752 mmHg 37%

    20 December, Wednesday

    Time Temperature Precipitation Wind Pressure Humidity
    00:00 +33°C° 0 mm 5 mps 752 mmHg 38%
    01:00 +32°C° 0 mm 4 mps 752 mmHg 40%
    02:00 +30°C° 0 mm 4 mps 752 mmHg 40%
    03:00 +30°C° 0 mm 3 mps 752 mmHg 40%
    04:00 +29°C° 0 mm 2 mps 752 mmHg 41%
    05:00 +30°C° 0 mm 2 mps 753 mmHg 43%
    06:00 +31°C° 0 mm 2 mps 753 mmHg 45%
    07:00 +31°C° 0 mm 2 mps 754 mmHg 47%
    08:00 +35°C° 0 mm 2 mps 754 mmHg 40%
    09:00 +38°C° 0 mm 2 mps 753 mmHg 33%
    10:00 +41°C° 0 mm 2 mps 753 mmHg 25%
    11:00 +42°C° 0 mm 3 mps 753 mmHg 26%
    12:00 +41°C° 0 mm 4 mps 753 mmHg 27%
    13:00 +41°C° 0 mm 4 mps 753 mmHg 28%
    14:00 +38°C° 0.7 mm 4 mps 753 mmHg 35%
    15:00 +36°C° 0.7 mm 3 mps 754 mmHg 42%
    16:00 +34°C° 0.7 mm 3 mps 754 mmHg 48%
    17:00 +32°C° 0 mm 2 mps 755 mmHg 50%
    18:00 +31°C° 0 mm 2 mps 755 mmHg 52%
    19:00 +30°C° 0 mm 1 mps 756 mmHg 55%
    20:00 +29°C° 0 mm 1 mps 757 mmHg 56%
    21:00 +28°C° 0 mm 2 mps 758 mmHg 57%
    22:00 +28°C° 0 mm 2 mps 759 mmHg 58%
    23:00 +27°C° 0 mm 4 mps 759 mmHg 64%
    Show more